CST,Max TemperatureF,Mean TemperatureF,Min TemperatureF,Max Dew PointF,MeanDew PointF,Min DewpointF,Max Humidity, Mean Humidity, Min Humidity, Max Sea Level PressureIn, Mean Sea Level PressureIn, Min Sea Level PressureIn, Max VisibilityMiles, Mean VisibilityMiles, Min VisibilityMiles, Max Wind SpeedMPH, Mean Wind SpeedMPH, Max Gust SpeedMPH,PrecipitationIn, CloudCover, Events, WindDirDegrees
2013-12-1,80,72,66,56,54,50,56,49,42,30.21,30.08,29.92,10,10,10,15,10,20,0.00,6,,192
2013-12-2,69,62,54,56,51,48,100,78,55,29.89,29.80,29.69,10,5,0,9,4,,0.00,2,Fog,211
2013-12-3,76,62,48,58,49,41,100,65,29,29.67,29.62,29.55,10,6,0,16,8,21,0.00,1,Fog,176
2013-12-4,79,70,60,63,60,58,93,73,52,29.83,29.73,29.64,10,8,6,21,11,24,0.00,4,,184
2013-12-5,67,50,32,63,34,27,96,80,64,30.12,30.03,29.81,10,9,6,20,12,28,0.05,8,Rain,348
2013-12-6,35,32,28,32,29,23,96,87,78,30.47,30.24,30.07,10,8,2,18,12,25,0.73,8,Rain-Thunderstorm,351
2013-12-7,32,30,27,27,25,23,85,79,72,30.50,30.40,30.30,10,10,5,16,9,20,T,8,Snow,24
2013-12-8,40,36,31,36,32,26,92,84,76,30.27,30.16,30.07,10,8,2,8,2,9,T,8,,151
2013-12-9,39,36,32,36,33,30,100,93,85,30.38,30.23,30.13,10,6,2,14,8,20,0.03,8,Rain,11
2013-12-10,44,34,23,32,25,18,92,67,41,30.52,30.42,30.37,10,10,9,17,5,21,0.00,1,,347
2013-12-11,51,39,26,32,28,22,85,66,46,30.58,30.45,30.37,10,10,8,12,4,17,0.00,0,,357
2013-12-12,52,41,29,29,26,22,85,58,30,30.62,30.51,30.35,10,10,9,9,4,12,0.00,0,,89
2013-12-13,46,43,39,43,37,25,100,75,49,30.33,30.01,29.86,10,6,2,15,7,17,0.74,7,Rain,153
2013-12-14,49,41,32,49,41,28,100,85,70,30.32,30.05,29.82,10,8,2,23,9,29,T,7,Rain,327
2013-12-15,56,42,27,34,29,25,92,64,35,30.38,30.32,30.28,10,9,5,8,3,10,0.00,0,,269
2013-12-16,63,48,33,36,33,30,89,60,30,30.31,30.25,30.20,10,10,10,14,8,17,0.00,0,,190
2013-12-17,70,53,36,40,36,33,85,57,28,30.31,30.27,30.24,10,10,2,9,4,12,0.00,0,,201
2013-12-18,68,53,38,50,40,36,92,62,32,30.31,30.20,30.08,10,10,10,20,9,25,0.00,0,,184
2013-12-19,73,62,51,62,55,49,89,73,57,30.06,29.93,29.83,10,10,10,24,14,30,T,5,,176
2013-12-20,73,70,67,68,65,62,90,82,73,29.89,29.80,29.70,10,10,10,21,11,28,0.02,7,,176
2013-12-21,72,56,40,67,50,39,100,92,84,29.79,29.68,29.57,10,6,1,20,8,25,1.45,8,Rain-Thunderstorm,275
2013-12-22,53,42,31,51,37,25,100,82,64,30.38,30.07,29.81,10,10,3,18,10,23,0.00,7,,313
2013-12-23,48,38,27,29,26,23,85,64,42,30.56,30.47,30.37,10,10,10,13,4,16,0.00,2,,358
2013-12-24,52,40,27,30,28,24,92,67,41,30.57,30.46,30.33,10,10,10,14,7,25,0.00,0,,143
2013-12-25,56,44,32,39,33,28,89,62,35,30.40,30.35,30.31,10,10,10,14,6,18,0.00,4,,159
2013-12-26,56,44,32,37,34,31,92,68,43,30.45,30.39,30.33,10,9,5,9,3,12,0.00,0,,19
2013-12-27,57,46,35,39,36,33,92,68,43,30.48,30.40,30.34,10,10,8,9,2,13,0.00,0,,128
2013-12-28,57,48,38,39,35,31,86,63,40,30.33,30.16,30.01,10,10,10,8,2,10,0.00,0,,170
2013-12-29,56,46,35,45,34,25,76,68,59,30.25,30.10,29.99,10,10,10,20,7,26,0.00,5,,277
2013-12-30,42,37,32,27,24,21,75,63,50,30.42,30.32,30.22,10,10,10,15,6,20,0.00,3,,327
2013-12-31,54,42,29,30,25,20,85,56,26,30.47,30.38,30.26,10,10,10,12,4,15,0.00,0,,152